When you browse on this site, cookies collect data to enhance your experience and personalize the content and advertising you see.
Visit our Privacy Policy to learn more. By continuing to use the site, you agree to this use of cookies and data.
  • en France
  • Liste des pays
  • À 7 jours
  • Température de l'eau
  • Carte météo
  • Widgets météo
  • user-avatar
    Se connecter

    Météo par heure à Cobija

    Ce jour, 16 Septembre, Lundi

    Heure Température Précipitation Vent Pression Humidité
    00:00 +29°C° 0 mm 1 m/s 736 mmHg 61%
    01:00 +28°C° 0 mm 1 m/s 736 mmHg 61%
    02:00 +27°C° 0 mm 1 m/s 736 mmHg 64%
    03:00 +27°C° 0 mm 1 m/s 736 mmHg 66%
    04:00 +26°C° 0 mm 1 m/s 736 mmHg 69%
    05:00 +27°C° 0 mm 1 m/s 737 mmHg 66%
    06:00 +28°C° 0 mm 1 m/s 737 mmHg 63%
    07:00 +29°C° 0 mm 1 m/s 738 mmHg 60%
    08:00 +33°C° 0 mm 1 m/s 738 mmHg 50%
    09:00 +36°C° 0 mm 1 m/s 739 mmHg 41%
    10:00 +40°C° 0 mm 1 m/s 739 mmHg 32%
    11:00 +40°C° 0 mm 1 m/s 738 mmHg 30%
    12:00 +41°C° 0 mm 1 m/s 737 mmHg 28%
    13:00 +41°C° 0 mm 1 m/s 736 mmHg 25%
    14:00 +41°C° 0 mm 1 m/s 735 mmHg 27%
    15:00 +40°C° 0 mm 1 m/s 735 mmHg 28%
    16:00 +39°C° 0 mm 1 m/s 734 mmHg 29%
    17:00 +36°C° 0 mm 1 m/s 735 mmHg 33%
    18:00 +34°C° 0 mm 1 m/s 735 mmHg 38%
    19:00 +30°C° 0 mm 0 m/s 735 mmHg 43%
    20:00 +31°C° 0 mm 1 m/s 735 mmHg 45%
    21:00 +30°C° 0 mm 1 m/s 736 mmHg 48%
    22:00 +30°C° 0 mm 1 m/s 736 mmHg 51%
    23:00 +29°C° 0 mm 1 m/s 736 mmHg 53%

    Demain, 17 Septembre, Mardi

    Heure Température Précipitation Vent Pression Humidité
    00:00 +29°C° 0 mm 1 m/s 735 mmHg 55%
    01:00 +28°C° 0 mm 1 m/s 735 mmHg 57%
    02:00 +27°C° 0 mm 1 m/s 735 mmHg 59%
    03:00 +25°C° 0 mm 0 m/s 735 mmHg 62%
    04:00 +24°C° 0 mm 0 m/s 735 mmHg 64%
    05:00 +26°C° 0 mm 0 m/s 736 mmHg 60%
    06:00 +27°C° 0 mm 0 m/s 737 mmHg 56%
    07:00 +29°C° 0 mm 0 m/s 738 mmHg 52%
    08:00 +34°C° 0 mm 1 m/s 738 mmHg 44%
    09:00 +37°C° 0 mm 1 m/s 738 mmHg 36%
    10:00 +41°C° 0 mm 1 m/s 738 mmHg 27%
    11:00 +41°C° 0 mm 1 m/s 737 mmHg 26%
    12:00 +38°C° 0 mm 0 m/s 736 mmHg 25%
    13:00 +38°C° 0 mm 0 m/s 735 mmHg 24%
    14:00 +38°C° 0 mm 0 m/s 735 mmHg 24%
    15:00 +37°C° 0 mm 0 m/s 734 mmHg 25%
    16:00 +40°C° 0 mm 1 m/s 734 mmHg 25%
    17:00 +35°C° 0 mm 0 m/s 734 mmHg 30%
    18:00 +32°C° 0 mm 0 m/s 734 mmHg 35%
    19:00 +30°C° 0 mm 0 m/s 734 mmHg 40%
    20:00 +29°C° 0 mm 0 m/s 734 mmHg 42%
    21:00 +28°C° 0 mm 0 m/s 735 mmHg 45%
    22:00 +30°C° 0 mm 1 m/s 735 mmHg 47%
    23:00 +29°C° 0 mm 1 m/s 734 mmHg 50%

    Après-demain, 18 Septembre, Mercredi

    Heure Température Précipitation Vent Pression Humidité
    00:00 +28°C° 0 mm 1 m/s 734 mmHg 52%
    01:00 +28°C° 0 mm 1 m/s 733 mmHg 55%
    02:00 +27°C° 0 mm 1 m/s 733 mmHg 57%
    03:00 +27°C° 0 mm 1 m/s 734 mmHg 60%
    04:00 +27°C° 0 mm 1 m/s 734 mmHg 62%
    05:00 +28°C° 0 mm 1 m/s 734 mmHg 60%
    06:00 +29°C° 0 mm 1 m/s 735 mmHg 57%
    07:00 +30°C° 0 mm 2 m/s 736 mmHg 54%
    08:00 +34°C° 0 mm 2 m/s 736 mmHg 45%
    09:00 +38°C° 0 mm 2 m/s 736 mmHg 36%
    10:00 +41°C° 0 mm 2 m/s 736 mmHg 27%
    11:00 +42°C° 0 mm 2 m/s 735 mmHg 26%
    12:00 +42°C° 0 mm 1 m/s 734 mmHg 24%
    13:00 +43°C° 0 mm 1 m/s 733 mmHg 22%
    14:00 +42°C° 0 mm 1 m/s 732 mmHg 24%
    15:00 +41°C° 0 mm 1 m/s 732 mmHg 26%
    16:00 +40°C° 0 mm 1 m/s 731 mmHg 28%
    17:00 +37°C° 0 mm 1 m/s 731 mmHg 32%
    18:00 +35°C° 0 mm 1 m/s 732 mmHg 37%
    19:00 +33°C° 0 mm 1 m/s 732 mmHg 41%
    20:00 +32°C° 0 mm 1 m/s 732 mmHg 43%
    21:00 +31°C° 0 mm 1 m/s 733 mmHg 45%
    22:00 +31°C° 0 mm 1 m/s 733 mmHg 47%
    23:00 +30°C° 0 mm 1 m/s 733 mmHg 50%

    19 Septembre, Jeudi

    Heure Température Précipitation Vent Pression Humidité
    00:00 +29°C° 0 mm 1 m/s 732 mmHg 53%
    01:00 +26°C° 0 mm 0 m/s 732 mmHg 56%
    02:00 +26°C° 0 mm 0 m/s 732 mmHg 57%
    03:00 +28°C° 0 mm 1 m/s 733 mmHg 58%
    04:00 +28°C° 0 mm 1 m/s 733 mmHg 59%
    05:00 +29°C° 0 mm 1 m/s 734 mmHg 57%
    06:00 +30°C° 0 mm 1 m/s 735 mmHg 56%
    07:00 +30°C° 0 mm 1 m/s 735 mmHg 55%
    08:00 +33°C° 0 mm 1 m/s 736 mmHg 48%
    09:00 +35°C° 0 mm 1 m/s 736 mmHg 42%
    10:00 +39°C° 0 mm 2 m/s 736 mmHg 36%
    11:00 +40°C° 0 mm 1 m/s 735 mmHg 32%
    12:00 +42°C° 0 mm 1 m/s 734 mmHg 28%
    13:00 +43°C° 0 mm 1 m/s 733 mmHg 24%
    14:00 +41°C° 0.1 mm 1 m/s 733 mmHg 27%
    15:00 +39°C° 0.1 mm 1 m/s 732 mmHg 31%
    16:00 +37°C° 0.1 mm 1 m/s 731 mmHg 35%
    17:00 +33°C° 0 mm 0 m/s 732 mmHg 38%
    18:00 +32°C° 0 mm 0 m/s 732 mmHg 40%
    19:00 +31°C° 0 mm 0 m/s 732 mmHg 43%
    20:00 +30°C° 0 mm 0 m/s 733 mmHg 43%
    21:00 +32°C° 0 mm 1 m/s 733 mmHg 44%
    22:00 +32°C° 0 mm 1 m/s 734 mmHg 45%
    23:00 +31°C° 0 mm 1 m/s 734 mmHg 49%

    20 Septembre, Vendredi

    Heure Température Précipitation Vent Pression Humidité
    00:00 +30°C° 0 mm 1 m/s 734 mmHg 52%
    01:00 +29°C° 0 mm 1 m/s 733 mmHg 55%
    02:00 +29°C° 0 mm 1 m/s 734 mmHg 58%
    03:00 +28°C° 0 mm 1 m/s 734 mmHg 60%
    04:00 +28°C° 0 mm 1 m/s 734 mmHg 63%
    05:00 +29°C° 0 mm 1 m/s 735 mmHg 60%
    06:00 +30°C° 0 mm 1 m/s 736 mmHg 58%
    07:00 +30°C° 0 mm 1 m/s 737 mmHg 56%
    08:00 +34°C° 0 mm 1 m/s 737 mmHg 48%
    09:00 +38°C° 0 mm 2 m/s 737 mmHg 39%
    10:00 +41°C° 0 mm 2 m/s 738 mmHg 31%
    11:00 +41°C° 0 mm 2 m/s 737 mmHg 30%
    12:00 +41°C° 0 mm 1 m/s 736 mmHg 30%
    13:00 +41°C° 0 mm 1 m/s 735 mmHg 29%
    14:00 +39°C° 0.1 mm 1 m/s 735 mmHg 36%
    15:00 +36°C° 0.1 mm 1 m/s 734 mmHg 42%
    16:00 +34°C° 0.1 mm 1 m/s 734 mmHg 49%
    17:00 +32°C° 0.1 mm 1 m/s 734 mmHg 54%
    18:00 +31°C° 0.1 mm 1 m/s 735 mmHg 60%
    19:00 +27°C° 0.1 mm 0 m/s 735 mmHg 66%
    20:00 +26°C° 0.2 mm 0 m/s 736 mmHg 70%
    21:00 +26°C° 0.2 mm 0 m/s 736 mmHg 75%
    22:00 +25°C° 0.2 mm 0 m/s 736 mmHg 79%
    23:00 +24°C° 0.1 mm 0 m/s 736 mmHg 81%

    21 Septembre, Samedi

    Heure Température Précipitation Vent Pression Humidité
    00:00 +24°C° 0.1 mm 0 m/s 736 mmHg 82%
    01:00 +26°C° 0.1 mm 1 m/s 736 mmHg 83%
    02:00 +26°C° 0.1 mm 1 m/s 736 mmHg 84%
    03:00 +26°C° 0.1 mm 1 m/s 736 mmHg 84%
    04:00 +26°C° 0.1 mm 1 m/s 736 mmHg 84%
    05:00 +26°C° 0.1 mm 1 m/s 737 mmHg 82%
    06:00 +25°C° 0.1 mm 0 m/s 737 mmHg 80%
    07:00 +26°C° 0.1 mm 0 m/s 738 mmHg 78%
    08:00 +31°C° 0 mm 1 m/s 738 mmHg 64%
    09:00 +34°C° 0 mm 1 m/s 739 mmHg 51%
    10:00 +39°C° 0 mm 1 m/s 739 mmHg 37%
    11:00 +39°C° 0 mm 1 m/s 738 mmHg 35%
    12:00 +40°C° 0 mm 2 m/s 737 mmHg 33%
    13:00 +40°C° 0 mm 2 m/s 736 mmHg 31%
    14:00 +40°C° 0 mm 2 m/s 735 mmHg 32%
    15:00 +39°C° 0 mm 2 m/s 735 mmHg 33%
    16:00 +37°C° 0 mm 1 m/s 734 mmHg 35%
    17:00 +34°C° 0.2 mm 1 m/s 734 mmHg 48%
    18:00 +31°C° 0.2 mm 1 m/s 735 mmHg 61%
    19:00 +26°C° 0.2 mm 0 m/s 736 mmHg 74%
    20:00 +25°C° 0.2 mm 0 m/s 736 mmHg 78%
    21:00 +24°C° 0.2 mm 0 m/s 737 mmHg 82%
    22:00 +26°C° 0.2 mm 1 m/s 737 mmHg 86%
    23:00 +26°C° 0.7 mm 1 m/s 737 mmHg 88%
    Voir plus